CAPE
0 0 0 0 0 0 12 40 63 31 40 75 86 79 97 95 99 166 426 366 645 724 746 839 1055 1349 1444 1470 1412 1370 1396 1288 1066 1014 971 917 795 626 658 822 1004 822 699 546 518 544 523 685 874
0 0 0 0 0 0 8 71 35 27 5 24 58 67 135 338 484 551 416 522 679 759 771 827 1165 1369 1477 1485 1530 1487 1465 1308 1206 1131 1024 880 667 608 636 599 815 446 325 303 343 462 480 503 632
0 0 0 0 0 0 29 57 15 0 0 11 52 35 63 389 467 530 476 704 825 858 899 1025 1177 1324 1462 1501 1558 1599 1645 1603 1481 1154 874 747 593 549 391 316 190 113 109 89 77 86 125 264 377
0 0 0 0 0 3 0 35 47 5 0 9 20 35 147 365 634 866 1009 1085 990 1183 1083 1186 1349 1405 1497 1546 1472 1476 1426 1358 1152 975 830 660 517 343 203 109 42 20 11 16 8 0 0 19 70
0 0 0 36 35 29 34 52 39 0 57 10 0 30 82 528 1074 1180 1180 1050 1236 1475 1299 1500 1405 1474 1523 1564 1472 1338 1304 1227 1175 1195 892 538 375 231 127 64 15 0 0 0 0 0 0 0 0
0 0 4 54 10 9 12 0 0 85 44 7 26 117 211 864 1086 1138 1155 1190 1455 2217 1971 1618 1599 1572 1538 1435 1212 1087 1056 1123 1184 1116 865 512 341 234 119 38 2 0 0 0 0 0 0 0 0
0 0 0 10 1 0 0 0 0 70 117 76 72 97 72 540 987 743 1051 1252 1387 1532 1477 1317 1230 1164 1069 961 856 876 985 972 1007 1013 847 669 436 397 153 20 0 0 0 0 0 0 0 0 0
0 3 1 13 1 0 0 0 17 87 128 93 145 78 40 84 458 557 823 907 1018 972 948 866 797 710 705 709 714 695 648 615 676 748 598 423 311 268 257 159 46 37 0 0 0 0 0 0 0
0 3 2 9 7 12 2 6 1 2 166 118 62 103 64 28 218 437 391 494 494 500 464 419 347 339 420 482 526 646 617 486 439 515 493 333 216 73 46 145 35 207 88 63 84 80 25 0 0
0 0 0 0 0 0 0 1 0 0 38 128 183 166 129 10 9 77 239 303 391 423 311 418 280 92 201 330 432 258 331 251 247 307 338 317 349 315 83 115 262 268 202 245 273 230 155 68 0
0 0 0 0 1 0 0 0 0 0 50 185 228 214 177 95 8 33 99 235 367 544 493 544 481 163 16 117 56 131 255 317 396 530 524 467 513 299 456 189 166 195 142 150 128 96 56 25 0
0 0 0 0 0 0 0 0 0 0 0 184 241 232 177 143 22 0 0 69 285 514 485 563 657 344 155 96 103 171 401 516 618 626 382 249 208 13 19 14 57 13 0 32 82 81 59 8 0
0 0 0 0 0 0 0 0 0 0 0 223 237 252 213 72 0 0 0 0 138 386 285 196 178 209 131 47 287 350 396 626 772 689 456 87 59 5 14 6 2 0 0 5 10 14 7 0 0
0 0 0 0 0 0 0 0 0 0 0 254 281 311 252 169 65 4 2 2 22 431 435 406 269 335 185 195 209 176 205 177 613 394 107 37 21 54 46 30 7 0 12 8 9 2 1 0 0
0 0 0 0 0 0 0 0 0 0 0 315 386 410 291 254 203 114 47 31 28 457 606 564 790 722 250 409 375 213 108 59 107 90 23 30 31 71 77 8 0 0 0 0 0 0 0 0 0
0 0 0 1 0 0 0 0 0 0 0 1 350 418 343 285 305 294 179 92 80 603 802 658 485 481 301 285 339 397 54 35 36 52 53 59 48 78 40 11 1 0 0 0 0 0 0 0 0
1 0 1 0 0 0 0 0 0 0 0 0 0 6 184 301 359 400 341 193 459 736 820 656 379 540 207 212 99 82 96 81 65 41 17 24 50 23 10 5 5 0 0 0 0 0 0 0 0
0 0 0 0 0 0 0 0 0 0 0 0 0 0 0 0 355 380 312 255 587 826 789 820 494 444 111 150 84 97 99 54 15 6 0 1 0 2 0 0 0 0 0 0 0 0 0 0 0
0 0 0 0 1 0 0 0 0 0 0 0 0 0 2 48 146 177 107 162 267 860 759 550 381 194 94 57 63 98 33 19 16 7 2 0 2 0 0 0 0 0 0 0 0 0 0 0 0
2 2 0 0 2 0 0 0 0 0 0 0 0 7 31 51 138 126 111 96 175 204 111 114 39 22 16 40 56 52 44 35 28 10 6 0 0 0 0 0 0 0 0 0 0 0 0 0 0
0 0 0 0 7 0 0 0 0 0 0 0 0 3 53 86 97 123 82 31 80 80 70 37 23 34 48 43 41 45 41 17 5 0 0 0 0 0 0 0 0 0 0 0 0 0 0 0 0
0 2 0 0 15 0 0 0 0 0 0 0 0 0 5 18 14 7 5 2 0 0 0 0 0 0 1 1 0 0 0 0 0 0 0 0 0 0 0 0 0 0 0 0 0 0 0 0 0
0 0 0 0 0 0 0 0 0 0 0 0 0 0 0 0 0 0 0 0 0 0 0 0 0 0 0 0 0 0 0 0 0 0 0 0 0 0 0 0 0 0 0 0 0 0 0 0 2
0 0 7 6 1 7 1 3 0 0 1 1 0 0 0 0 0 0 0 0 0 0 0 0 0 0 0 0 0 0 0 0 0 0 0 0 0 0 0 0 0 0 0 0 0 0 0 0 3
0 13 26 31 23 25 20 10 5 1 1 1 6 0 0 0 0 0 0 0 0 0 0 0 0 0 0 0 0 0 0 0 0 2 10 0 0 2 0 0 0 0 0 0 0 0 0 2 6
0 0 6 17 23 15 0 0 0 0 0 6 0 0 0 0 0 0 0 0 0 0 0 0 0 4 3 0 1 3 9 13 14 13 30 0 3 0 0 0 0 0 0 0 0 0 0 0 0
0 0 0 0 0 0 0 0 0 0 3 5 5 0 0 0 0 0 0 0 0 0 0 2 16 11 0 0 2 4 13 17 23 12 0 0 0 0 0 1 6 0 0 0 0 0 0 0 0
0 0 0 0 0 0 0 0 0 0 3 0 0 0 0 0 0 0 1 3 0 0 14 33 26 19 3 0 0 1 2 2 0 0 0 1 3 5 15 23 0 0 0 0 0 0 0 0 0
0 0 0 0 0 0 0 0 0 0 0 0 0 0 0 0 0 1 6 1 3 8 7 0 0 0 0 0 0 0 0 9 10 0 3 5 3 0 34 11 2 0 0 0 0 0 0 5 0
0 0 0 0 0 0 0 0 0 18 11 11 2 3 5 0 5 3 5 2 7 9 1 0 0 0 0 0 0 0 8 23 23 9 18 15 20 16 7 0 0 0 0 0 0 0 0 0 0
CIN
0 0 0 0 0 0 -1 -2 -1 -10 -3 -4 -225 -154 -135 -119 -78 -109 -43 -63 -56 -21 -23 -23 -13 -3 -1 0 0 0 0 0 -4 -2 -12 -30 -42 -77 -54 -41 -36 -50 -60 -64 -72 -79 -86 -76 -49
0 0 0 0 0 0 -15 -10 -7 -12 -50 -10 -11 -217 -231 -135 -111 -68 -51 -34 -50 -42 -25 -23 -9 -2 -0 -0 -0 0 0 0 -0 0 -7 -25 -76 -80 -72 -91 -44 -113 -109 -81 -84 -76 -87 -87 -73
0 0 0 0 0 0 -12 -3 -8 0 0 -66 -128 -196 -197 -80 -52 -48 -71 -38 -30 -22 -15 -11 -7 -2 -1 -1 -1 0 0 0 0 -5 -44 -48 -86 -107 -151 -164 -210 -215 -191 -181 -193 -191 -165 -126 -102
0 0 0 0 0 -24 0 -8 -3 -108 -37 -58 -94 -137 -184 -54 -66 -65 -17 -27 -34 -0 -8 -7 -2 -1 -0 0 0 0 -0 -1 -4 -20 -31 -70 -109 -165 -214 -243 -302 -325 -328 -307 -338 -56 -58 -307 -201
0 0 0 -6 -11 -22 -32 -5 -4 0 -115 -104 -8 -124 -171 -22 -67 -52 -49 -53 -28 0 -0 0 -1 0 0 0 0 -1 -0 -2 -8 -6 -17 -110 -154 -196 -238 -284 -357 0 0 0 0 0 0 0 0
0 0 -8 -6 -8 -2 -8 -0 0 -108 -80 -87 -88 -135 -86 -21 -73 -45 -72 -45 -25 0 0 0 -0 0 0 -1 -14 -28 -34 -21 -9 -8 -40 -119 -169 -202 -244 -320 -83 0 0 0 0 0 0 0 0
0 0 0 -47 -28 -2 0 0 0 -88 -98 -109 -138 -160 -115 -25 -35 -111 -89 -63 -41 -19 -16 -21 -25 -23 -45 -63 -87 -73 -41 -47 -39 -39 -70 -105 -160 -167 -215 -275 0 0 0 0 0 0 0 0 0
0 -9 -11 -26 -11 -3 0 0 -61 -46 -56 -80 -117 -87 -151 -133 -78 -116 -107 -106 -87 -88 -102 -103 -119 -149 -148 -138 -136 -120 -126 -133 -112 -102 -137 -157 -163 -160 -144 -173 -216 -229 -11 0 0 0 0 0 0
0 -7 -8 -19 -4 -8 0 -0 -24 -18 -63 -86 -100 -101 -106 -202 -114 -95 -127 -118 -157 -175 -190 -214 -260 -241 -234 -202 -189 -146 -138 -172 -190 -173 -173 -186 -229 -269 -270 -223 -263 -154 -200 -191 -160 -146 -136 0 0
0 0 0 0 0 0 -0 0 0 0 -128 -96 -98 -90 -100 -72 -186 -155 -108 -131 -127 -145 -64 -74 -102 -279 -314 -231 -234 -262 -243 -265 -253 -212 -155 -167 -174 -140 -182 -240 -174 -152 -165 -143 -120 -111 -115 -153 0
0 0 0 0 -3 0 0 0 0 0 -148 -117 -97 -95 -84 -78 -117 -186 -140 -123 -97 -72 -82 -84 -99 -100 -300 -242 -343 -145 -241 -103 -103 -98 -111 -97 -92 -112 -110 -120 -119 -125 -136 -160 -159 -154 -176 -205 0
0 0 0 0 0 0 0 0 0 0 0 -157 -103 -83 -86 -70 -92 0 0 -149 -61 -68 -75 -94 -123 -116 -101 -196 -112 -107 -89 -93 -76 -79 -75 -68 -75 -135 -167 -171 -160 -198 0 -240 -171 -167 -163 -175 0
0 0 0 0 0 0 0 0 0 0 0 -147 -122 -93 -73 -79 0 0 0 0 -86 -67 -60 -62 -119 -98 -165 -198 -122 -139 -119 -83 -62 -45 -36 -78 -78 -27 -131 -125 -38 0 0 -83 -72 -102 -109 0 0
0 0 0 0 0 0 0 0 0 0 0 -117 -82 -73 -94 -123 -130 -39 -117 -109 -70 -68 -85 -60 -151 -153 -119 -67 -57 -57 -43 -66 -39 -46 -93 -108 -139 -97 -93 -97 -79 0 -122 -113 -86 -20 -17 0 0
0 0 0 0 0 0 0 0 0 0 0 -83 -79 -64 -90 -98 -105 -80 -103 -96 -91 -97 -69 -188 -92 -79 -118 -82 -69 -42 -45 -29 -51 -56 -124 -92 -93 -76 -71 -82 0 0 0 0 0 0 0 0 0
0 0 0 -17 -3 0 0 0 0 0 0 -130 -80 -58 -56 -62 -69 -34 -28 -48 -40 -91 -32 -103 -34 -184 -96 -80 -72 -53 -80 -83 -80 -61 -48 -43 -60 -39 -28 -16 -5 0 0 0 0 0 0 0 0
-5 0 -12 0 0 0 0 0 0 0 0 0 0 -16 -36 -31 -18 -15 -15 -21 -222 -80 -40 -34 -16 -90 -53 -66 -69 -113 -77 -55 -56 -60 -59 -53 -25 -15 -3 -3 -4 0 0 0 0 0 0 0 0
0 -12 0 0 0 0 0 0 0 0 0 0 0 0 0 0 -28 -22 -13 -16 -144 -86 -45 -25 -24 -41 -19 -79 -89 -72 -54 -46 -39 -18 -10 -5 -2 -16 0 0 0 0 0 0 0 0 0 0 0
0 0 0 0 -8 0 0 0 0 0 0 0 0 0 -99 -89 -55 -30 -125 -84 -180 -64 -61 -49 -54 -65 -66 -53 -36 -32 -32 -17 -5 -16 -26 -0 -23 -0 0 0 0 0 0 0 0 0 0 0 0
-13 -11 0 0 -25 0 0 0 0 0 0 0 -3 -186 -149 -72 -47 -46 -33 -47 -112 -88 -70 -61 -46 -61 -27 -17 -9 -16 -11 -6 -2 -7 -29 0 0 0 0 0 0 0 0 0 0 0 0 0 0
0 0 0 0 -57 0 0 0 0 0 0 0 0 -78 -115 -79 -57 -54 -45 -151 -104 -77 -63 -70 -31 -16 -16 -18 -22 -15 -5 -2 -9 0 0 0 0 0 0 0 0 0 0 0 0 0 0 0 0
0 -81 0 0 -39 0 0 0 0 0 0 0 0 0 -72 -51 -20 -22 -23 -33 0 0 0 0 0 0 -4 -3 0 0 0 0 0 0 0 0 0 0 0 0 0 0 0 0 0 0 0 0 0
0 0 0 0 0 -6 0 0 0 0 0 0 0 0 0 0 0 0 0 0 0 0 0 0 0 0 0 0 0 0 0 0 0 0 0 0 0 0 0 0 -0 -1 0 0 0 0 0 0 -26
0 -5 -96 -107 -32 -75 -7 -3 0 0 -4 -1 0 -3 -4 0 0 0 0 0 0 0 0 0 0 0 0 0 0 0 0 0 0 0 0 0 -0 0 0 0 0 0 0 0 0 0 0 0 -12
0 -75 -54 -38 -48 -24 -15 -8 -7 -1 -7 -13 -12 0 0 0 0 0 0 0 0 0 0 0 0 0 0 0 0 0 0 0 0 -1 -1 -0 0 -0 0 0 0 0 0 0 0 0 0 -1 0
0 0 -17 -34 -14 -9 0 -0 -10 -3 0 -0 -0 0 0 0 0 0 0 0 0 0 0 0 0 0 -2 0 -1 -2 -0 0 0 0 -0 0 -3 -0 0 0 0 0 0 0 0 0 0 0 0
0 0 0 0 0 0 0 0 0 0 -4 -11 -28 0 0 0 0 0 0 0 -4 -2 0 -1 -1 -2 0 0 -0 0 0 -0 -0 -1 0 0 0 0 0 -7 -2 0 0 0 0 0 0 0 0
0 0 0 0 0 0 0 0 -2 0 -3 0 0 0 0 0 0 0 -50 -52 0 0 0 -0 -3 -1 -7 0 0 -1 -1 -1 0 0 0 -0 -12 -6 -3 -2 0 0 0 0 0 0 0 0 0
0 0 0 0 0 0 0 0 0 0 -2 -1 0 0 0 0 0 -11 -5 -7 -5 -5 -3 -1 0 0 0 0 0 0 0 -4 -2 0 -1 -2 -1 0 -7 -2 -2 0 0 0 0 0 0 -54 0
0 0 0 0 0 0 0 0 0 -2 -3 -3 -1 -2 -8 0 -5 -21 -6 -2 -5 -3 -2 -0 0 0 0 0 0 0 -15 -1 -1 -0 -0 -2 -2 -1 0 -2 0 0 0 0 0 0 0 0 0
Wind_Speed
nan nan nan nan nan nan nan nan nan nan nan nan nan nan nan nan nan 30 33 28 34 35 33 34 32 31 29 25 23 21 21 20 14 11 9 7 6 7 7 7 9 10 11 11 12 11 12 13 12
nan nan nan nan nan nan nan nan nan nan nan nan nan nan 36 31 31 37 36 36 39 37 34 29 28 27 24 24 22 21 20 17 13 11 9 9 10 11 11 13 13 15 14 14 15 14 14 13 12
nan nan nan nan nan nan nan nan nan nan nan nan nan nan nan 36 41 32 37 39 37 33 30 24 23 21 23 21 17 15 13 12 12 11 12 12 14 15 16 17 17 16 15 nan nan nan 15 15 14
nan nan nan nan nan nan nan nan nan nan nan nan nan nan 27 32 34 36 36 34 30 26 17 19 18 18 18 16 12 10 11 11 13 14 15 17 18 18 20 19 nan nan nan nan nan nan nan nan nan
nan nan nan nan nan nan nan nan nan nan nan nan nan nan nan 31 43 39 37 32 29 22 17 14 12 12 11 11 10 10 11 14 16 17 18 21 22 22 22 nan nan nan nan nan nan nan nan nan nan
nan nan nan nan nan nan nan nan nan nan nan nan nan 35 27 30 28 23 25 20 20 20 15 9 11 11 12 12 12 13 16 17 18 20 20 22 23 22 22 nan nan nan nan nan nan nan nan nan nan
nan nan nan nan nan nan nan nan nan nan 21 nan nan nan nan 22 18 21 18 16 16 12 10 8 8 10 13 14 16 16 18 20 20 21 21 23 25 25 26 nan nan nan nan nan nan nan nan nan nan
nan nan nan nan nan nan nan nan nan nan 26 nan 18 nan nan nan 15 13 11 10 9 6 7 8 7 10 12 14 19 19 20 22 23 22 25 26 26 27 28 28 nan nan nan nan nan nan nan nan nan
nan nan nan nan nan nan nan nan nan nan 26 11 nan 11 nan nan 7 4 5 6 6 5 8 8 11 14 15 14 17 19 21 22 25 25 25 27 26 nan nan 25 nan 24 nan nan nan nan nan nan nan
nan nan nan nan nan nan nan nan nan nan nan 14 20 16 8 nan nan nan 2 6 6 8 12 13 16 nan 14 14 16 18 19 20 22 23 24 24 24 25 nan 25 24 25 29 28 29 29 28 nan nan
nan nan nan nan nan nan nan nan nan nan nan 12 15 8 8 nan nan nan nan 9 10 13 16 16 16 16 nan 17 nan 18 21 26 24 26 27 27 27 28 29 28 28 29 31 34 33 nan nan nan nan
nan nan nan nan nan nan nan nan nan nan nan 12 18 17 9 9 nan nan nan nan 11 13 19 20 20 21 19 nan 24 25 25 25 26 28 30 33 33 nan nan nan nan nan nan nan nan nan nan nan nan
nan nan nan nan nan nan nan nan nan nan nan 10 10 11 13 nan nan nan nan nan 18 18 24 26 27 25 25 nan 24 24 29 32 29 29 30 nan nan nan nan nan nan nan nan nan nan nan nan nan nan
nan nan nan nan nan nan nan nan nan nan nan 10 9 7 9 13 nan nan nan nan nan 21 21 23 28 29 15 32 33 35 38 33 35 33 33 nan nan nan nan nan nan nan nan nan nan nan nan nan nan
nan nan nan nan nan nan nan nan nan nan nan 17 10 8 10 11 10 15 nan nan nan 29 32 30 29 27 30 31 34 40 36 nan 40 nan nan nan nan nan nan nan nan nan nan nan nan nan nan nan nan
nan nan nan nan nan nan nan nan nan nan nan nan 13 12 10 10 14 15 17 nan nan 36 40 39 38 35 36 37 38 40 nan nan nan nan nan nan nan nan nan nan nan nan nan nan nan nan nan nan nan
nan nan nan nan nan nan nan nan nan nan nan nan nan nan 13 16 17 17 16 25 30 35 40 39 33 42 37 45 nan nan nan nan nan nan nan nan nan nan nan nan nan nan nan nan nan nan nan nan nan
nan nan nan nan nan nan nan nan nan nan nan nan nan nan nan nan 25 26 24 26 34 35 32 32 37 42 41 46 nan nan nan nan nan nan nan nan nan nan nan nan nan nan nan nan nan nan nan nan nan
nan nan nan nan nan nan nan nan nan nan nan nan nan nan nan nan 26 27 30 33 38 33 37 40 42 44 nan nan nan nan nan nan nan nan nan nan nan nan nan nan nan nan nan nan nan nan nan nan nan
nan nan nan nan nan nan nan nan nan nan nan nan nan nan nan nan 33 31 34 nan 30 41 44 44 nan nan nan nan nan nan nan nan nan nan nan nan nan nan nan nan nan nan nan nan nan nan nan nan nan
nan nan nan nan nan nan nan nan nan nan nan nan nan nan nan nan nan 29 nan nan nan nan nan nan nan nan nan nan nan nan nan nan nan nan nan nan nan nan nan nan nan nan nan nan nan nan nan nan nan
nan nan nan nan nan nan nan nan nan nan nan nan nan nan nan nan nan nan nan nan nan nan nan nan nan nan nan nan nan nan nan nan nan nan nan nan nan nan nan nan nan nan nan nan nan nan nan nan nan
nan nan nan nan nan nan nan nan nan nan nan nan nan nan nan nan nan nan nan nan nan nan nan nan nan nan nan nan nan nan nan nan nan nan nan nan nan nan nan nan nan nan nan nan nan nan nan nan nan
nan nan nan nan nan nan nan nan nan nan nan nan nan nan nan nan nan nan nan nan nan nan nan nan nan nan nan nan nan nan nan nan nan nan nan nan nan nan nan nan nan nan nan nan nan nan nan nan nan
nan nan nan nan nan nan nan nan nan nan nan nan nan nan nan nan nan nan nan nan nan nan nan nan nan nan nan nan nan nan nan nan nan nan nan nan nan nan nan nan nan nan nan nan nan nan nan nan nan
nan nan nan nan nan nan nan nan nan nan nan nan nan nan nan nan nan nan nan nan nan nan nan nan nan nan nan nan nan nan nan nan nan nan nan nan nan nan nan nan nan nan nan nan nan nan nan nan nan
nan nan nan nan nan nan nan nan nan nan nan nan nan nan nan nan nan nan nan nan nan nan nan nan nan nan nan nan nan nan nan nan nan nan nan nan nan nan nan nan nan nan nan nan nan nan nan nan nan
nan nan nan nan nan nan nan nan nan nan nan nan nan nan nan nan nan nan nan nan nan nan nan nan nan nan nan nan nan nan nan nan nan nan nan nan nan nan nan nan nan nan nan nan nan nan nan nan nan
nan nan nan nan nan nan nan nan nan nan nan nan nan nan nan nan nan nan nan nan nan nan nan nan nan nan nan nan nan nan nan nan nan nan nan nan nan nan nan nan nan nan nan nan nan nan nan nan nan
nan nan nan nan nan nan nan nan nan nan nan nan nan nan nan nan nan nan nan nan nan nan nan nan nan nan nan nan nan nan nan nan nan nan nan nan nan nan nan nan nan nan nan nan nan nan nan nan nan
Wind_Direction
nan nan nan nan nan nan nan nan nan nan nan nan nan nan nan nan nan 284 270 289 284 285 288 295 298 296 292 288 291 288 287 285 272 279 280 288 307 300 300 290 275 272 273 277 277 289 305 309 300
nan nan nan nan nan nan nan nan nan nan nan nan nan nan 243 254 264 271 270 285 282 283 286 296 293 289 284 287 286 286 285 280 281 277 280 295 301 301 295 287 282 274 275 269 269 265 272 285 297
nan nan nan nan nan nan nan nan nan nan nan nan nan nan nan 276 280 269 270 281 283 283 288 288 285 283 286 287 286 283 275 267 275 285 287 295 298 296 293 284 282 285 286 nan nan nan 282 284 288
nan nan nan nan nan nan nan nan nan nan nan nan nan nan 258 279 271 268 272 271 276 285 284 284 281 289 286 283 279 279 275 285 277 275 285 289 291 289 287 286 nan nan nan nan nan nan nan nan nan
nan nan nan nan nan nan nan nan nan nan nan nan nan nan nan 261 270 272 267 271 283 286 274 267 276 275 284 291 291 285 285 285 289 291 295 292 290 291 292 nan nan nan nan nan nan nan nan nan nan
nan nan nan nan nan nan nan nan nan nan nan nan nan 282 263 264 272 268 270 272 276 279 282 271 271 282 290 295 299 298 296 295 297 300 300 303 300 300 299 nan nan nan nan nan nan nan nan nan nan
nan nan nan nan nan nan nan nan nan nan 282 nan nan nan nan 277 270 267 264 254 257 261 271 248 257 283 290 305 301 300 301 305 308 310 313 306 304 307 306 nan nan nan nan nan nan nan nan nan nan
nan nan nan nan nan nan nan nan nan nan 273 nan 283 nan nan nan 298 273 260 248 241 242 245 247 270 292 292 293 297 303 308 311 312 315 309 302 303 304 308 310 nan nan nan nan nan nan nan nan nan
nan nan nan nan nan nan nan nan nan nan 289 276 nan 283 nan nan 300 271 217 199 219 233 264 280 287 279 282 288 301 311 315 315 311 306 305 304 306 nan nan 318 nan 312 nan nan nan nan nan nan nan
nan nan nan nan nan nan nan nan nan nan nan 251 239 248 246 nan nan nan 300 320 305 281 288 292 284 nan 296 306 299 302 305 298 293 300 308 310 317 315 nan 314 327 324 322 321 314 310 308 nan nan
nan nan nan nan nan nan nan nan nan nan nan 307 313 290 302 nan nan nan nan 308 308 299 287 281 288 296 nan 293 nan 291 295 295 303 312 314 317 317 316 314 313 308 309 309 306 303 nan nan nan nan
nan nan nan nan nan nan nan nan nan nan nan 342 344 332 318 323 nan nan nan nan 276 308 288 293 297 300 296 nan 302 307 303 304 311 317 318 313 312 nan nan nan nan nan nan nan nan nan nan nan nan
nan nan nan nan nan nan nan nan nan nan nan 325 325 328 333 nan nan nan nan nan 307 308 305 305 303 305 302 nan 297 306 310 309 309 315 314 nan nan nan nan nan nan nan nan nan nan nan nan nan nan
nan nan nan nan nan nan nan nan nan nan nan 335 345 345 340 342 nan nan nan nan nan 316 299 303 310 319 314 315 288 302 308 310 309 318 317 nan nan nan nan nan nan nan nan nan nan nan nan nan nan
nan nan nan nan nan nan nan nan nan nan nan 332 355 4 2 354 334 346 nan nan nan 325 314 318 312 307 318 316 309 303 311 nan 314 nan nan nan nan nan nan nan nan nan nan nan nan nan nan nan nan
nan nan nan nan nan nan nan nan nan nan nan nan 2 346 344 338 350 347 337 nan nan 314 321 321 317 309 320 317 311 313 nan nan nan nan nan nan nan nan nan nan nan nan nan nan nan nan nan nan nan
nan nan nan nan nan nan nan nan nan nan nan nan nan nan 278 291 274 273 280 299 315 319 319 311 304 314 317 315 nan nan nan nan nan nan nan nan nan nan nan nan nan nan nan nan nan nan nan nan nan
nan nan nan nan nan nan nan nan nan nan nan nan nan nan nan nan 289 285 272 289 303 302 297 305 308 309 307 306 nan nan nan nan nan nan nan nan nan nan nan nan nan nan nan nan nan nan nan nan nan
nan nan nan nan nan nan nan nan nan nan nan nan nan nan nan nan 292 288 283 286 292 295 297 304 307 303 nan nan nan nan nan nan nan nan nan nan nan nan nan nan nan nan nan nan nan nan nan nan nan
nan nan nan nan nan nan nan nan nan nan nan nan nan nan nan nan 291 294 291 nan 287 298 300 293 nan nan nan nan nan nan nan nan nan nan nan nan nan nan nan nan nan nan nan nan nan nan nan nan nan
nan nan nan nan nan nan nan nan nan nan nan nan nan nan nan nan nan 294 nan nan nan nan nan nan nan nan nan nan nan nan nan nan nan nan nan nan nan nan nan nan nan nan nan nan nan nan nan nan nan
nan nan nan nan nan nan nan nan nan nan nan nan nan nan nan nan nan nan nan nan nan nan nan nan nan nan nan nan nan nan nan nan nan nan nan nan nan nan nan nan nan nan nan nan nan nan nan nan nan
nan nan nan nan nan nan nan nan nan nan nan nan nan nan nan nan nan nan nan nan nan nan nan nan nan nan nan nan nan nan nan nan nan nan nan nan nan nan nan nan nan nan nan nan nan nan nan nan nan
nan nan nan nan nan nan nan nan nan nan nan nan nan nan nan nan nan nan nan nan nan nan nan nan nan nan nan nan nan nan nan nan nan nan nan nan nan nan nan nan nan nan nan nan nan nan nan nan nan
nan nan nan nan nan nan nan nan nan nan nan nan nan nan nan nan nan nan nan nan nan nan nan nan nan nan nan nan nan nan nan nan nan nan nan nan nan nan nan nan nan nan nan nan nan nan nan nan nan
nan nan nan nan nan nan nan nan nan nan nan nan nan nan nan nan nan nan nan nan nan nan nan nan nan nan nan nan nan nan nan nan nan nan nan nan nan nan nan nan nan nan nan nan nan nan nan nan nan
nan nan nan nan nan nan nan nan nan nan nan nan nan nan nan nan nan nan nan nan nan nan nan nan nan nan nan nan nan nan nan nan nan nan nan nan nan nan nan nan nan nan nan nan nan nan nan nan nan
nan nan nan nan nan nan nan nan nan nan nan nan nan nan nan nan nan nan nan nan nan nan nan nan nan nan nan nan nan nan nan nan nan nan nan nan nan nan nan nan nan nan nan nan nan nan nan nan nan
nan nan nan nan nan nan nan nan nan nan nan nan nan nan nan nan nan nan nan nan nan nan nan nan nan nan nan nan nan nan nan nan nan nan nan nan nan nan nan nan nan nan nan nan nan nan nan nan nan
nan nan nan nan nan nan nan nan nan nan nan nan nan nan nan nan nan nan nan nan nan nan nan nan nan nan nan nan nan nan nan nan nan nan nan nan nan nan nan nan nan nan nan nan nan nan nan nan nan